Location: New Plymouth
(39.0670°S, 174.0830°E)
Time: 19:59:25
(UTC+12:00)

Cosmos 1707 Rocket - Pass Details

Date: 24 January 2019
Orbit: 606 x 631 km, 82.5° (Epoch: 22 April)

Event Time Altitude Azimuth Distance (km) Brightness Sun altitude
Exits shadow 22:55:27 55° 56° (NE) 740 3.5 -20.7°
Maximum altitude 22:55:55 59° 86° (E) 712 3.6 -20.8°
Drops below altitude 10° 23:00:15 10° 165° (SSE) 1,992 6.6 -21.3°
Sets 23:02:31 0° 168° (SSE) 2,906 7.6 -21.6°
